TimeEDT,TemperatureF,Dew PointF,Humidity,Sea Level PressureIn,VisibilityMPH,Wind Direction,Wind SpeedMPH,Gust SpeedMPH,PrecipitationIn,Events,Conditions,WindDirDegrees,DateUTC
12:53 AM,75.0,66.0,73,30.12,10.0,Calm,Calm,-,N/A,,Clear,0,2013-08-24 04:53:00
1:53 AM,73.9,64.9,73,30.12,10.0,NE,3.5,-,N/A,,Clear,50,2013-08-24 05:53:00
2:53 AM,73.0,64.0,73,30.12,10.0,Calm,Calm,-,N/A,,Clear,0,2013-08-24 06:53:00
3:53 AM,72.0,64.9,78,30.13,10.0,ENE,3.5,-,N/A,,Clear,60,2013-08-24 07:53:00
4:53 AM,71.1,64.0,78,30.14,10.0,Calm,Calm,-,N/A,,Clear,0,2013-08-24 08:53:00
5:53 AM,69.1,64.0,84,30.16,10.0,Calm,Calm,-,N/A,,Clear,0,2013-08-24 09:53:00
6:53 AM,68.0,63.0,84,30.18,10.0,Calm,Calm,-,N/A,,Clear,0,2013-08-24 10:53:00
7:53 AM,68.0,63.0,84,30.20,10.0,Calm,Calm,-,N/A,,Clear,0,2013-08-24 11:53:00
8:53 AM,72.0,64.0,76,30.22,10.0,NE,3.5,-,N/A,,Clear,40,2013-08-24 12:53:00
9:53 AM,75.9,64.9,69,30.23,10.0,Calm,Calm,-,N/A,,Clear,0,2013-08-24 13:53:00
10:53 AM,81.0,64.0,56,30.24,10.0,Variable,3.5,-,N/A,,Clear,0,2013-08-24 14:53:00
11:53 AM,82.9,63.0,51,30.23,10.0,Variable,3.5,-,N/A,,Clear,0,2013-08-24 15:53:00
12:53 PM,84.0,59.0,43,30.22,10.0,Calm,Calm,-,N/A,,Partly Cloudy,0,2013-08-24 16:53:00
1:53 PM,87.1,54.0,32,30.20,10.0,East,6.9,-,N/A,,Clear,90,2013-08-24 17:53:00
2:53 PM,88.0,55.9,34,30.19,10.0,Variable,6.9,-,N/A,,Clear,0,2013-08-24 18:53:00
3:53 PM,88.0,52.0,29,30.19,10.0,East,8.1,-,N/A,,Clear,80,2013-08-24 19:53:00
4:53 PM,89.1,50.0,26,30.18,10.0,ENE,8.1,-,N/A,,Clear,60,2013-08-24 20:53:00
5:53 PM,87.1,55.9,35,30.18,10.0,ESE,6.9,-,N/A,,Clear,120,2013-08-24 21:53:00
6:53 PM,86.0,57.9,38,30.18,10.0,ESE,6.9,-,N/A,,Clear,120,2013-08-24 22:53:00
7:53 PM,84.9,57.0,38,30.18,10.0,East,4.6,-,N/A,,Clear,100,2013-08-24 23:53:00
8:53 PM,82.0,57.9,44,30.19,10.0,Calm,Calm,-,N/A,,Clear,0,2013-08-25 00:53:00
9:53 PM,75.0,60.1,60,30.20,10.0,Calm,Calm,-,N/A,,Clear,0,2013-08-25 01:53:00
10:53 PM,73.0,61.0,66,30.22,10.0,Calm,Calm,-,N/A,,Clear,0,2013-08-25 02:53:00
11:53 PM,73.0,61.0,66,30.23,10.0,Calm,Calm,-,N/A,,Clear,0,2013-08-25 03:53:00